STARLINK-11480, 62830

Orbit data source: Space-Track

STARLINK-11480, 62830 is a payload satellite owned by SpaceX/Seattle (US) in LEO that was launched on Mon, 27 Jan 2025 UTC via an FALCON 9 launch vehicle from the Air Force Eastern Test Range (AFETR). Payload-class satellites include a variety of spacecraft equipped with specific instruments for various scientific and technological missions. These include communications satellites like Starlink; space stations such as the ISS; scientific satellites like the Hubble; Earth observation satellites from companies like Planet Labs, Umbra, and HawkEye 360; GPS; miniature CubeSats for education and research; and military/defense satellites.

Loading next visibility...
Identifier
62830, 2025-019B
Orbit
LEO
Country
Flag of USUS
Related business
Manufacturer
SpaceX/Seattle
Mission
Operational Commercial Communications
Bus & Motor
STARLINK V2MD, Unknown motor
Mass
960 kg wet, ~910 kg dry
Launch date (UTC)
2025-01-27 (2 years ago)
Launch vehicle
FALCON 9
Launch site
Air Force Eastern Test Range (AFETR)
Object type
Payload
Rocket body
Debris
Shape & HBR
Box + 2 Pan, 18.1 m
Radar Cross Section
36.964 m², Large (>1 m²)

Expand to show TLE details & history
Last TLE update: 16 hours ago

TLE from 16 hours ago
0 STARLINK-11480
1 62830U 25019B   26247.50452764  .00134691  00000-0  10353-2 0  9998
2 62830  43.0021 308.1505 0002152 279.3312  80.7312 15.70861864 92008
Epoch: 2026-09-04T12:06Z
TLE epoch observation values (Epoch: 2026-09-04T12:06:31.188Z)
Latitude
-0.00002°
Longitude
142.89313°
Altitude
355.971 km
Speed
7.698 km/s
True Right ascension
20h 32m 36s
True Declination
0° 00' 00"
Sunlit
Object was in full shadow at epoch
Visualization orbit readout
Latitude
Unknown
Longitude
Unknown
Altitude
Unknown
Speed
Unknown
Apparent Right ascension
Unknown
Apparent Declination
Unknown
Sunlit
N/A
Visualization observer readout
Local Sidereal Time
20:01:04
Azimuth
Unknown
Elevation
Unknown
Doppler factor
Unknown
Orbital elements
Apogee altitude
359.864 km
Perigee altitude
356.964 km
Semi-major axis
6,736.551 km
Eccentricity
0.00022
Inclination
43.0021°
RAAN
308.1505°
Arg. of periapsis
279.3312°
True anomaly
80.75554°
Mean anomaly
80.7312°
Eccentric anomaly
80.74337°
Mean motion
3.92543 °/min
Orbital period
91.71 mins
BSTAR
0.0010353
Loading maneuver chart data...
Computing Atmospheric mass density...
Loading historical data...
Loading historical data...
Loading historical data...
Loading historical data...
Loading historical data...
Loading historical data...
Loading historical data...

Documentation

Showing up to 5 results
|